Вернуться в каталог

BREEZE-M DEB

АктивенHEO
NORAD 38589·DEBRIS·🇷🇺 Russia

Запущен Mar 14, 2008 с Baikonur Cosmodrome

Loading…

Ближайшие Пролёты (ближайшие 24 часа)

TLE

СвежийSource: Space-Track

Эпоха: Sep 7, 2026, 09:05 UTC

1 38589U 08011AL  26250.37890667 -.00000050  00000-0  00000-0 0  9990
2 38589  48.0410 145.0097 6310175 159.3638 246.1070  2.95958571  5248

Отслеживайте BREEZE-M DEB в реальном времени с AllMySat

Download on the App Store